Regional Weather Roundup
Issued by NWS

Home | Current Version | Previous Version | Text Only | Print | Product List | Glossary Off
Versions: 1 2 3 4 5 6 7 8 9 10 11 12 13 14 15 16 17 18 19 20 21 22 23 24 25 26 27

000
ASUS45 KSLC 171210
RWRUT

UTAH REGIONAL WEATHER ROUNDUP
NATIONAL WEATHER SERVICE SALT LAKE CITY UT
500 AM MST FRI NOV 17 2017

UTZ001>011-023>025-171300-

NORTHERN UTAH

CITY           SKY/WX    TMP DP  RH WIND       PRES   REMARKS
BRIGHAM CITY   CLOUDY    41  37  86 CALM      29.77F
HILL AFB       LGT RAIN  40  39  93 N13       29.75F WCI  33
LOGAN          HVY RAIN  35  33  92 SE7       29.78F FOG     WCI  29
OGDEN          LGT RAIN  42  40  92 NE8       29.75F
SALT LAKE CITY LGT RAIN  46  42  86 N18G28    29.75R
TOOELE VALLEY  LGT RAIN  43  41  93 N15       29.77R
WENDOVER       NOT AVBL
HEBER CITY     LGT RAIN  46  37  71 W12G26    29.73R
WEST JORDAN    CLOUDY    41  41 100 NW17      29.77S

$$

UTZ011>015-024>027-171300-

CENTRAL/NORTHEAST UTAH

CITY           SKY/WX    TMP DP  RH WIND       PRES   REMARKS
PROVO AIRPORT  CLOUDY    55  39  54 W14       29.74F
MOAB/CANYONLAN CLOUDY    62  35  36 SW22G29   29.76F
DELTA          CLOUDY    54  34  47 S24G31    29.77S
PRICE          CLOUDY    44  32  62 E7        29.79F
ROOSEVELT      CLOUDY    41  32  70 CALM      29.75S
VERNAL         PTCLDY    38  25  59 CALM      29.73S

$$

UTZ013>016-019>022-027-171300-

SOUTHERN UTAH

CITY           SKY/WX    TMP DP  RH WIND       PRES   REMARKS
BRYCE CANYON   CLOUDY    46  34  62 SW16G28   29.97F
CEDAR CITY     CLOUDY    54  36  50 S25G40    29.88S
MILFORD        CLOUDY    52  36  54 S17       29.84F
ST GEORGE      CLOUDY    66  38  35 SW13G28   29.84S
HANKSVILLE     MOCLDY    61  32  33 SW24G30   29.81F
BLANDING         N/A     43  25  49 E5        30.03S

$$

REGIONAL REPORTS     COLORADO/ARIZONA

CITY           SKY/WX    TMP DP  RH WIND       PRES   REMARKS
CRAIG, CO      CLOUDY    54  26  34 SW25G33   29.73R
GRAND JUNCTION PTCLDY    55  28  35 S7        29.79S
RIFLE, CO      CLOUDY    54  27  35 W10       29.79S
MONTROSE, CO   CLOUDY    55  32  41 S18G26    29.89F
CORTEZ, CO     CLOUDY    49  28  44 S6        30.00F
COLORADO CITY  CLOUDY    59  37  44 SW9G16    29.97F
PAGE, AZ       MOCLDY    65  35  33 SW16G33   29.89F
GRAND CANYON   CLOUDY    49  30  48 SW12      30.09S
KINGMAN, AZ    MOCLDY    64  34  32 S12       29.98F
FLAGSTAFF, AZ  CLOUDY    47  27  45 SW14      30.13S

$$

REGIONAL REPORTS    NEVADA/IDAHO/WYOMING

CITY           SKY/WX    TMP DP  RH WIND       PRES   REMARKS
LAS VEGAS, NV  MOCLDY    68  40  35 SW17G26   29.83F
ELY, NY        MOCLDY    49  35  58 S23G32    29.82S
ELKO, NV       CLOUDY    40  36  86 S7        29.78S
POCATELLO, ID  CLOUDY    38  38 100 SW15      29.73S WCI  29
BURLEY, ID     MOCLDY    37  33  85 SW9       29.74R WCI  30
FORT BRIDGER,  LGT SNOW  34  34 100 N10G16    29.77R VSB 3/4 WCI  26
EVANSTON, WY   LGT SNOW  32  32 100 N13       29.76R VSB 3/4 WCI  22
ROCK SPRINGS,  CLOUDY    35  33  92 NW5       29.72F WCI  31

$$




USA.gov is the U.S. government's official web portal to all federal, state and local government web resources and services.